Flag for Switzerland Weather past 2 weeks in Kloten, Zurich, Switzerland

Now
45 °F

Broken clouds.


Feels Like: 40 °F
Forecast: 29 / 66 °F
Wind: 8 mph from Northeast

Location: Zurich-Kloten


UV Index: 3 (Moderate)

Visibility: N/A


Pressure: 29.80 "Hg

Humidity: 76%

Dew point: 37 °F

Location of KlotenLocation

Historic Weather in Kloten

°F

Kloten temperature yesterday

Maximum temperature yesterday: 50 °F (at 10:20 AM)
Minimum temperature yesterday: 36 °F (at 10:20 PM)
Average temperature yesterday: 42 °F

Past Weeks' High & Low Weather Summary

 TemperatureHumidityPressure
High70 °F (Apr 7, 6:50 PM)100% (Apr 6, 12:50 AM)30.33 "Hg (Apr 6, 12:50 AM)
Low32 °F (Apr 16, 5:20 AM)25% (Apr 17, 6:20 PM)29.71 "Hg (Apr 4, 2:20 PM)
Average51 °F67%30.08 "Hg
* Reported Apr 4 2:20 PM — Apr 19 2:20 PM, Kloten, Weather by CustomWeather, © 2014

Note: Actual official high and low records may vary slightly from our data, if they occured in-between our weather recording intervals... More about our weather records

Advertising

Historic Weather Conditions — Data for Previous 24 hours

 ConditionsComfort  
Time TempWeatherWind HumidityBarometerVisibility
2:20 PM
Apr 19
45 °FBroken clouds.9 mph81%29.80 "HgN/A
1:50 PM45 °FPartly sunny.10 mph76%29.80 "HgN/A
1:20 PM43 °FPartly sunny.10 mph81%29.80 "HgN/A
12:50 PM43 °FBroken clouds.9 mph81%29.80 "HgN/A
12:20 PM43 °FBroken clouds.8 mph81%29.83 "HgN/A
11:50 AM41 °FPartly sunny.8 mph87%29.83 "HgN/A
11:20 AM41 °FPartly sunny.9 mph87%29.83 "HgN/A
10:50 AM41 °FPartly sunny.6 mph87%29.83 "HgN/A
10:20 AM41 °FBroken clouds.6 mph87%29.83 "HgN/A
9:50 AM39 °FBroken clouds.5 mph93%29.83 "HgN/A
9:20 AM39 °FBroken clouds.6 mph93%29.83 "Hg5 mi
8:50 AM39 °FBroken clouds.5 mph87%29.83 "Hg5 mi
8:20 AM39 °FBroken clouds.5 mph87%29.83 "Hg5 mi
7:50 AM39 °FBroken clouds.6 mph87%29.83 "Hg5 mi
7:20 AM37 °FPartly cloudy.7 mph93%29.83 "Hg4 mi
6:50 AM37 °FLight rain. Partly cloudy.6 mph93%29.83 "Hg3 mi
6:20 AM37 °FDrizzle. Fog.5 mph93%29.83 "Hg3 mi
5:50 AM36 °FDrizzle. Fog.6 mph100%29.83 "Hg3 mi
5:20 AM36 °FDrizzle. Fog.6 mph100%29.83 "Hg3 mi
4:50 AM36 °FDrizzle. Fog.5 mph100%29.86 "Hg3 mi
4:20 AM36 °FFog.5 mph100%29.86 "Hg3 mi
3:50 AM36 °FFog.5 mph100%29.86 "Hg3 mi
3:20 AM36 °FFog.5 mph100%29.86 "Hg3 mi
2:50 AM36 °FPartly cloudy.5 mph100%29.89 "Hg4 mi
1:50 AM36 °FPassing clouds.2 mph100%29.92 "Hg4 mi
1:20 AM36 °FPassing clouds.3 mph100%29.92 "Hg5 mi
12:50 AM37 °FPassing clouds.5 mph93%29.92 "Hg5 mi
12:20 AM37 °FPassing clouds.5 mph93%29.92 "Hg6 mi
11:50 PM
Apr 18
37 °FPassing clouds.2 mph93%29.92 "Hg6 mi
11:20 PM37 °FPassing clouds.2 mph93%29.92 "HgN/A
10:50 PM37 °FPassing clouds.3 mph93%29.95 "HgN/A
10:20 PM36 °FPassing clouds.2 mph100%29.95 "HgN/A
9:50 PM37 °FScattered showers. Passing clouds.1 mph93%29.95 "HgN/A
9:20 PM37 °FLight rain. Mostly cloudy.2 mph93%29.95 "Hg4 mi
8:50 PM37 °FLight rain. Broken clouds.2 mph93%29.95 "Hg5 mi
8:20 PM37 °FRain. Partly sunny.3 mph93%29.95 "Hg4 mi
7:50 PM37 °FRain. Partly sunny.3 mph93%29.92 "Hg4 mi
7:20 PM37 °FRain. Partly sunny.7 mph93%29.92 "Hg4 mi
6:50 PM37 °FLight rain. Broken clouds.6 mph93%29.92 "Hg6 mi
6:20 PM37 °FLight rain. Broken clouds.7 mph100%29.92 "Hg4 mi
5:50 PM39 °FLight rain. Broken clouds.5 mph93%29.92 "Hg6 mi
5:20 PM39 °FRain. Broken clouds.7 mph87%29.89 "Hg4 mi
4:50 PM39 °FRain. Broken clouds.12 mph87%29.89 "Hg4 mi
4:20 PM41 °FRain. Partly sunny.17 mph93%29.86 "Hg4 mi
3:20 PM46 °FRain. Partly sunny.3 mph87%29.86 "Hg4 mi
Weather by CustomWeather, © 2014

See weather overview